Location: ?ejeti?ky
(50.4060°N, 14.9016°E)
Time: 20:19:39
(UTC+00:00)

X-37B - Pass Details

Date: 13 December 2021
Orbit: 334 x 337 km, 45.0° (Epoch: 11 January)

Event Time Altitude Azimuth Distance (km) Brightness Sun altitude
Rises 16:06:02 0° 246° (WSW) 2,103 6.7 -10.4°
Reaches altitude 10° 16:08:13 10° 233° (SW) 1,266 4.6 -10.7°
Maximum altitude 16:10:38 26° 174° (S) 710 2.1 -11.0°
Enters shadow 16:12:57 11° 116° (ESE) 1,224 2.7 -11.4°
